[[{"header":{"parameterUnit":"m.s-1","parameterCategory":1,"la1":30.2991,"la2":30.254,"lo1":-89.0895,"lo2":-89.0444,"dy":0.0017,"dx":0.0017,"nx":28,"ny":28,"refTime":"2025-02-02T09:00:00:Z","depth":0,"parameterNumber":2,"parameterNumberName":"U-component_of_WINDS"},"data":[0,0,0,0,0,0,0,0,0,0,0,0,0,0,0,0,0,0,0,0,0,0,0,0,0,0,0,0,0,0,0,0,0,0,0,0,0,0,0,0,0,0,0,0,0,0,0,0,0,0,0,0,0,0,0,0,0,0,0.4912,0.4912,0,0.4962,0.4963,0.4963,0.4962,0.4961,0.496,0.496,0.501,0.5012,0.5014,0,0,0,0,0,0,0,0,0,0,0,0,0,0.4813,0.4815,0.4912,0.4912,0.4913,0.4962,0.4963,0.4963,0.4962,0.4961,0.496,0.4959,0.501,0.5012,0.5014,0,0,0,0,0,0,0,0,0,0,0,0,0,0.4859,0.4815,0.4912,0.4918,0.4919,0.4962,0.4963,0.4964,0.4962,0.4961,0.496,0.4959,0.5009,0.5012,0.5015,0.5054,0,0,0.5024,0.5025,0,0,0,0,0,0,0,0,0.4856,0.4862,0.4917,0.4918,0.4919,0.4955,0.4946,0.4994,0.4962,0.4946,0.496,0.4958,0.4992,0.4997,0.5008,0.5056,0.5058,0.5024,0.5026,0.5027,0.5028,0,0,0,0,0,0,0,0.4853,0.486,0.4932,0.4917,0.4919,0.4918,0.4923,0.4955,0.4974,0.4947,0.4947,0.4953,0.4993,0.5006,0.501,0.5059,0.5024,0.5027,0.5028,0.503,0.514,0.5141,0,0,0,0,0,0,0.4849,0.4858,0.493,0.4933,0.4884,0.4921,0.4927,0.4944,0.4974,0.4978,0.4954,0.4953,0.5001,0.5006,0.5011,0.5058,0.5027,0.503,0.5032,0.5139,0.514,0.5142,0,0,0,0,0,0,0.4846,0.4855,0.4928,0.4895,0.4905,0.4924,0.4943,0.4946,0.4958,0.4979,0.4982,0.4963,0.5,0.5007,0.5043,0.506,0.5031,0.5034,0.5138,0.5139,0.5141,0.5153,0,0,0,0,0,0,0.4844,0.4854,0.487,0.4896,0.4906,0.4959,0.4944,0.4948,0.4964,0.4963,0.4989,0.4992,0.5,0.5039,0.5046,0.5063,0.5036,0.5136,0.5138,0.514,0.5151,0.5155,0.5158,0,0,0,0,0,0.484,0.4871,0.4871,0.4879,0.4926,0.496,0.4966,0.4975,0.4965,0.498,0.4994,0.4991,0.5057,0.5042,0.5051,0.5069,0.5135,0.5138,0.514,0.5149,0.5154,0.5158,0,0,0,0,0,0,0.4847,0.4875,0.4874,0.4915,0.4935,0.496,0.498,0.498,0.5003,0.5001,0.5011,0.5017,0.5052,0.5065,0.5048,0.5108,0.5095,0.5099,0.5099,0.5103,0.5107,0.5102,0.5039,0,0,0,0,0,0.4853,0.4879,0.4902,0.4935,0.4945,0.4961,0.4976,0.4981,0.5002,0.5011,0.5027,0.5047,0.5072,0.5089,0.5113,0.5153,0.5158,0.517,0.5173,0.5176,0.5179,0.52,0.5205,0.515,0.515,0.515,0,0,0.4866,0.4884,0.49,0.4937,0.4953,0.4979,0.4968,0.4996,0.5015,0.5015,0.5049,0.5062,0.5085,0.5123,0.514,0.5134,0.5196,0.5179,0.5181,0.5183,0.5203,0.5208,0.5213,0.5152,0.5151,0.5151,0,0,0.4902,0.4919,0.4948,0.4965,0.499,0.5,0.5007,0.5032,0.504,0.5075,0.5075,0.5097,0.5141,0.5157,0.5171,0.5213,0.5211,0.5221,0.5239,0.5259,0.5263,0.5267,0.5281,0.5286,0.5224,0.5224,0.5224,0,0.4915,0.4954,0.4963,0.4991,0.5007,0.5008,0.5037,0.5053,0.5084,0.5095,0.5088,0.5142,0.5158,0.5198,0.5209,0.522,0.5228,0.5217,0.5262,0.5266,0.5269,0.5283,0.5288,0.5225,0.5225,0.5225,0.5225,0,0.4968,0.4995,0.5016,0.5046,0.5064,0.5093,0.5105,0.5123,0.5126,0.5136,0.5171,0.5191,0.5218,0.5229,0.5232,0.527,0.5265,0.526,0.5246,0.5275,0.5288,0.5293,0.5226,0.5226,0.5226,0.5226,0,0,0.501,0.5044,0.5052,0.5065,0.5092,0.5113,0.5141,0.5169,0.5183,0.5204,0.5227,0.5264,0.5259,0.5275,0.528,0.5298,0.5328,0.529,0.5291,0.5296,0.537,0.5373,0.5379,0.5328,0.5329,0.533,0.5367,0,0.5048,0.5098,0.5107,0.5151,0.5175,0.5177,0.5201,0.522,0.523,0.5252,0.5264,0.5289,0.5281,0.5291,0.5308,0.5321,0.5343,0.5319,0.5349,0.535,0.5342,0.5385,0.5389,0.5424,0.5373,0.5373,0.5374,0,0.51,0.5122,0.5168,0.5192,0.5202,0.5224,0.5249,0.5271,0.5292,0.5298,0.5316,0.5319,0.5347,0.5333,0.5372,0.5354,0.5367,0.5375,0.5377,0.5379,0.5363,0.5388,0.5435,0.544,0.5382,0.5381,0.5381,0,0.5124,0.5166,0.5199,0.5211,0.5239,0.5254,0.5266,0.5286,0.5302,0.5324,0.5334,0.5359,0.5372,0.5391,0.54,0.539,0.5438,0.5425,0.5443,0.5443,0.5453,0.5452,0.5501,0.5463,0.5463,0.5463,0.5462,0,0.5165,0.5193,0.521,0.523,0.5261,0.5271,0.5301,0.5313,0.5331,0.5352,0.5355,0.5376,0.5387,0.5409,0.5417,0.5447,0.5453,0.5458,0.546,0.5458,0.5457,0.5465,0.5463,0.5464,0.5464,0.5463,0.5463,0,0.5197,0.521,0.5246,0.5269,0.5276,0.5297,0.5317,0.5336,0.5347,0.5374,0.5381,0.5397,0.5423,0.5435,0.5466,0.5471,0.5505,0.5506,0.5498,0.5498,0.5516,0.5513,0.5572,0.5579,0.5537,0.5537,0.5537,0,0.5223,0.5244,0.527,0.5285,0.5297,0.5322,0.5337,0.5347,0.5364,0.5389,0.5405,0.5431,0.5452,0.5493,0.5507,0.5531,0.5531,0.555,0.5535,0.5531,0.553,0.5528,0.553,0.5552,0.5553,0.5553,0.5553,0,0.5265,0.527,0.5293,0.5318,0.5337,0.5357,0.5376,0.5388,0.5401,0.5419,0.5446,0.5462,0.5494,0.5519,0.5544,0.5556,0.5557,0.5558,0.5563,0.5561,0.5555,0.5557,0.5505,0.5557,0.5556,0.5556,0.5556,0.5556,0.5294,0.5313,0.5333,0.5358,0.5374,0.5392,0.5411,0.5424,0.5446,0.5473,0.5478,0.5505,0.5525,0.5559,0.5572,0.5593,0.5588,0.5596,0.5598,0.56,0.56,0.5552,0.5598,0.5598,0.5598,0.5598,0.5598,0,0.5336,0.5349,0.5372,0.5399,0.5419,0.5418,0.5439,0.5456,0.548,0.5499,0.5519,0.5549,0.5573,0.5589,0.5614,0.5628,0.5629,0.5634,0.5632,0.5635,0.5604,0.5596,0.5633,0.5633,0.5633,0.5633,0.5633,0.5633,0.536,0.5391,0.5398,0.5437,0.545,0.5477,0.549,0.5506,0.5521,0.5554,0.5574,0.5585,0.5602,0.5627,0.5649,0.5653,0.5662,0.5667,0.5671,0.5641,0.5637,0.5634,0.5627,0.5669,0.5669,0.57,0.57,0.5701]},{"header":{"parameterUnit":"m.s-1","parameterCategory":1,"la1":30.2991,"la2":30.254,"lo1":-89.0895,"lo2":-89.0444,"dy":0.0017,"dx":0.0017,"nx":28,"ny":28,"refTime":"2025-02-02T09:00:00:Z","depth":0,"parameterNumber":3,"parameterNumberName":"V-component_of_WINDS"},"data":[0,0,0,0,0,0,0,0,0,0,0,0,0,0,0,0,0,0,0,0,0,0,0,0,0,0,0,0,0,0,0,0,0,0,0,0,0,0,0,0,0,0,0,0,0,0,0,0,0,0,0,0,0,0,0,0,0,0,0.3404,0.3404,0,0.3374,0.3373,0.3373,0.3348,0.3347,0.3347,0.3347,0.3316,0.3316,0.3315,0,0,0,0,0,0,0,0,0,0,0,0,0,0.3441,0.344,0.3404,0.3404,0.3404,0.3374,0.3373,0.3373,0.3348,0.3347,0.3347,0.3347,0.3317,0.3316,0.3315,0,0,0,0,0,0,0,0,0,0,0,0,0,0.3419,0.344,0.3404,0.3387,0.3386,0.3374,0.3373,0.3373,0.3348,0.3347,0.3347,0.3347,0.3317,0.3316,0.3315,0.3318,0,0,0.3313,0.3312,0,0,0,0,0,0,0,0,0.342,0.3418,0.339,0.3389,0.3387,0.3364,0.3375,0.3354,0.3348,0.3362,0.3347,0.3347,0.3333,0.333,0.3326,0.3316,0.3315,0.3313,0.3312,0.3312,0.3311,0,0,0,0,0,0,0,0.3422,0.3419,0.3392,0.339,0.3388,0.3381,0.3378,0.3371,0.335,0.3361,0.3359,0.3356,0.3332,0.3327,0.3325,0.3315,0.3313,0.3312,0.3311,0.3311,0.3305,0.3305,0,0,0,0,0,0,0.3426,0.342,0.3393,0.3391,0.3403,0.3381,0.3377,0.3372,0.335,0.3346,0.3356,0.3355,0.3328,0.3326,0.3324,0.3324,0.3312,0.3311,0.331,0.3304,0.3305,0.3305,0,0,0,0,0,0,0.3427,0.3424,0.3394,0.3405,0.3401,0.3381,0.3375,0.3371,0.3366,0.3346,0.3343,0.3355,0.3328,0.3325,0.3319,0.3323,0.331,0.331,0.3304,0.3304,0.3305,0.3327,0,0,0,0,0,0,0.3428,0.3424,0.3425,0.3405,0.3401,0.3391,0.3375,0.3371,0.3365,0.3363,0.3344,0.3341,0.3327,0.332,0.3318,0.3322,0.3309,0.3303,0.3304,0.3305,0.3326,0.3328,0.333,0,0,0,0,0,0.343,0.3433,0.3426,0.3422,0.3401,0.3391,0.3388,0.3372,0.3365,0.3366,0.3353,0.3341,0.3323,0.332,0.3317,0.3321,0.3303,0.3304,0.3305,0.3325,0.3328,0.333,0,0,0,0,0,0,0.3455,0.3431,0.3422,0.3419,0.3407,0.3387,0.3387,0.3376,0.3366,0.3365,0.3345,0.3342,0.3338,0.3329,0.3326,0.3321,0.3311,0.3312,0.3328,0.333,0.3332,0.3335,0.3308,0,0,0,0,0,0.346,0.3454,0.3433,0.3432,0.3427,0.3408,0.3403,0.3391,0.3379,0.3374,0.336,0.3348,0.3339,0.3334,0.3325,0.3324,0.3319,0.3325,0.3327,0.3329,0.333,0.3327,0.3329,0.3308,0.3308,0.3308,0,0,0.3471,0.3457,0.3454,0.3437,0.3427,0.342,0.3404,0.3398,0.3393,0.3373,0.3366,0.3356,0.3341,0.3337,0.3335,0.333,0.3334,0.333,0.3332,0.3331,0.3328,0.333,0.3332,0.3308,0.3308,0.3308,0,0,0.3488,0.3477,0.3475,0.3464,0.3448,0.3435,0.3435,0.3415,0.3407,0.3401,0.3385,0.3378,0.3364,0.3354,0.3347,0.3357,0.3346,0.3355,0.3367,0.3365,0.3366,0.3368,0.3371,0.3372,0.3356,0.3356,0.3356,0,0.3504,0.3493,0.3475,0.347,0.3462,0.3443,0.344,0.3431,0.3413,0.3408,0.3402,0.3383,0.3372,0.3365,0.3367,0.3362,0.3361,0.3357,0.3367,0.3369,0.337,0.3373,0.3374,0.3357,0.3357,0.3357,0.3356,0,0.3513,0.3506,0.3506,0.3489,0.3481,0.3477,0.3458,0.3453,0.3442,0.3429,0.3422,0.3407,0.3395,0.3392,0.3381,0.3383,0.338,0.3371,0.3361,0.3373,0.3376,0.3377,0.3358,0.3358,0.3358,0.3357,0,0,0.3547,0.3517,0.3518,0.3509,0.3489,0.3483,0.3478,0.3464,0.346,0.3448,0.3442,0.343,0.3421,0.3413,0.3401,0.3399,0.3407,0.339,0.3389,0.3393,0.3407,0.3414,0.3416,0.3399,0.3399,0.3399,0.3408,0,0.356,0.3549,0.3532,0.3527,0.352,0.35,0.3495,0.3482,0.347,0.3462,0.3449,0.344,0.3429,0.3424,0.3421,0.3407,0.341,0.3406,0.3394,0.3394,0.3399,0.3417,0.3425,0.3434,0.3409,0.3409,0.3409,0,0.3574,0.3562,0.3556,0.3535,0.3532,0.3528,0.3513,0.3506,0.349,0.3481,0.3472,0.3458,0.3451,0.3441,0.3431,0.3428,0.3422,0.3414,0.3414,0.3413,0.3403,0.3416,0.3437,0.3438,0.3411,0.3411,0.3411,0,0.3599,0.3581,0.3575,0.3568,0.3543,0.3541,0.3531,0.3514,0.3507,0.3495,0.3489,0.3476,0.3469,0.3459,0.3442,0.3437,0.3433,0.3423,0.3426,0.3426,0.3426,0.3427,0.3446,0.3423,0.3423,0.3423,0.3423,0,0.3616,0.3613,0.3585,0.3581,0.3577,0.3557,0.3553,0.3541,0.3526,0.352,0.3502,0.3496,0.3474,0.3465,0.3451,0.3444,0.3441,0.3434,0.343,0.3435,0.3436,0.3431,0.343,0.3423,0.3423,0.3423,0.3423,0,0.3642,0.3624,0.3616,0.3593,0.3587,0.3584,0.3565,0.356,0.3546,0.3538,0.3534,0.3513,0.3501,0.3483,0.3467,0.3457,0.3453,0.3447,0.3458,0.3456,0.346,0.346,0.3477,0.3478,0.3454,0.3454,0.3454,0,0.3655,0.3652,0.3628,0.3621,0.3612,0.3602,0.3594,0.3574,0.3566,0.3547,0.3545,0.3531,0.352,0.3503,0.3485,0.3472,0.3466,0.3473,0.3464,0.3469,0.3465,0.3466,0.3465,0.3475,0.3475,0.3476,0.3476,0,0.3678,0.3668,0.3657,0.3643,0.3634,0.3621,0.3608,0.3604,0.3581,0.3573,0.3561,0.3552,0.3534,0.3521,0.3505,0.3494,0.3481,0.3479,0.3479,0.3484,0.349,0.3486,0.3463,0.3479,0.3478,0.3478,0.3478,0.3478,0.3697,0.3693,0.3675,0.3663,0.3651,0.3639,0.3633,0.3618,0.3607,0.3591,0.3579,0.3567,0.355,0.3527,0.3517,0.3507,0.3501,0.3502,0.3502,0.3502,0.3504,0.3492,0.3504,0.3504,0.3504,0.3504,0.3504,0,0.3719,0.3706,0.3695,0.3677,0.3667,0.3655,0.3639,0.3632,0.3622,0.3607,0.3595,0.358,0.3567,0.3548,0.3534,0.3529,0.3523,0.3526,0.3527,0.3524,0.351,0.3511,0.3532,0.3532,0.3532,0.3532,0.3532,0.3532,0.3729,0.3722,0.371,0.3695,0.3682,0.367,0.3662,0.365,0.3638,0.3622,0.3611,0.3599,0.3582,0.3565,0.3552,0.3547,0.3543,0.3548,0.3541,0.3528,0.3525,0.3523,0.3524,0.3547,0.3547,0.3556,0.3556,0.3556]}]]